Retour au catalogue

STARLINK-3332

ActifCommunicationsVLEO
NORAD 50825·PAYLOAD·🇺🇸 United States

Lancé Jan 6, 2022 depuis Cape Canaveral Space Force Station

Loading…

Prochains Passages (prochaines 24 heures)

TLE

FraisSource: CelesTrak SupGP

Époque: Sep 15, 2026, 01:25 UTC

1 50825C 22001Y   26258.05951389 -.00040701  00000+0 -13089-2 0  2582
2 50825  53.1600  29.1631 0001084  86.2422 322.1630 15.31720740    14

Suivez STARLINK-3332 en temps réel avec AllMySat

Download on the App Store